TRITON-1

Last updated on Mon Sep 21 2026 00:03:44 GMT+0000 (Coordinated Universal Time)

1 39427U 13066M 26263.63846954 .00001638 00000+0 19972-3 0 9993 2 39427 97.8144 171.2416 0087809 283.5161 75.6280 14.82062970688223
UTC large
Height (km)
Speed (km/s)
/
Latitude / Longitude
Inclination (degrees)
Orbital Period (minutes)
Azimuth
Elevation
Range (km)
Doppler Factor

Next 0 passes for location: London (51.5072 / 0.1276)

No passes found over London.
TRITON-1